SL-16 DEB

Satellite information

Favourite Embed

Satellite Type and Status

DEBRISIN ORBIT

Key statistics

Satellite SL-16 DEB at a glance.

Uptime

11995

Days in orbit

Revolutions

≈ 14.5

Per day

Orbit

LEO

Low Earth Orbit

Inclination

71.0

Latest

Satellite identification and parameters

Extended collection of information and parameters for SL-16 DEB.

Object identification

Identified? True

Debris? True

Object name: SL-16 DEB

International designator: 1992-093GC

Object number (NORAD): 22493

Object ID (CCSDS): 22493

Country: COMMONWEALTH OF INDEPENDENT STATES (CIS)

Current information (Y/N): Y

RCS size: SMALL

Orbital parameters

Period: 99.115 minutes

Inclination: 71.0413 deg

SMA: 7094.473 km

Apoapsis: 784.607 km

Periapsis: 648.068 km

RAAN: 18.9603 deg

Eccentricy: 0.00962287

Argument of periapsis: 199.6709 deg

Mean anomaly: 160.0714 deg

Mean motion: 14.52856075 rev/day

Mean motion (dot): 0.00003382 rev/day2

B* drag term: 0.00078604071 1/REarth

Two-line elements (TLE)

Creation date: Oct. 26, 2025, 2:54 a.m.

Reference frame: TEME

Reference center: EARTH

Epoch: Oct. 25, 2025, 3:34 p.m. UTC

TLE line 0: 0 SL-16 DEB

TLE line 1: 1 22493U 92093GC 25298.64929588 .00003382 00000-0 78604-3 0 9994

TLE line 2: 2 22493 71.0413 18.9603 0096229 199.6709 160.0714 14.52856075736945

Live tracking on map

Real-time ground track for satellite SL-16 DEB.

In-orbit conjunctions

A list of the most updated potential collisions computed for object SL-16 DEB.

Target Orbit TCA Probability of collision Miss distance Type
CZ-6A DEB SSO 2024-11-15 06:41:44 0.0001854816 918.0 (m) DEBRIS
IRIDIUM 33 DEB LEO 2024-11-13 20:45:17 0.0002230114 817.0 (m) DEBRIS

Associated space launch

Second generation ELING satellite

SL-16 DEB was lifted into orbit during the mission ‘Zenit-2 | Tselina-2 12’, on board a Zenit-2 space rocket.

The launch took place on Dec. 25, 1992, 5:56 a.m. from 45/1.

For more information about the launch, click the button.

Launch to space Zenit-2 | Tselina-2 12
Zenit-2 | Tselina-2 12

Agency: N/A

Status: Launch Successful

Launch date: Dec. 25, 1992, 5:56 a.m. UTC

Rocket: Zenit-2

Launch pad: 45/1

Location: Baikonur Cosmodrome, Republic of Kazakhstan

...

Latest news about this satellite

There are no fresh news available about this satellite. Check back as we update our databases every day.


Newsletter sign-up

Weekly statistics, charts and insights to help you stay on top of the space industry.